Location: Sternwarte auf dem Internationalen Platz Vogelsang IP
(50.5721°N, 6.4398°E)
Time: 10:15:13
(UTC+01:00)

A-11 Canister half - Pass Details

Date: 14 December 2025
Orbit: 1511 x 1688 km, 47.2° (Epoch: 15 January)

Event Time Altitude Azimuth Distance (km) Brightness Sun altitude
Rises 12:53:06 0° 169° (SSE) 4,639 13.0 16.0°
Reaches altitude 10° 12:59:21 10° 137° (SE) 3,683 11.7 15.9°
Maximum altitude 13:01:38 11° 122° (ESE) 3,608 11.4 15.8°
Drops below altitude 10° 13:03:55 10° 108° (ESE) 3,709 11.2 15.8°
Sets 13:10:15 0° 77° (ENE) 4,740 11.3 15.6°
